ABR5MS LEBL-LPPR

Flight info

Callsign ABR5MS
Flight time 1h 24m
Altitude 32000
Route LOBAR N725 DGO DCT NEA DCT ZMR L155 ADORO DCT INKIT
Aircraft B738/M-SDE2E3FGHIRWXY/LB1

Departure

Time 2026-05-07 07:57
Airport Josep Tarradellas Barcelona-El Prat Airport (LEBL)

Arrival

Time 2026-05-07 09:21
Airport Francisco de Sá Carneiro Airport (LPPR)
Time Latitude Longitude Altitude Speed Heading
2026-05-07 07:24 41.29769 2.06821 17 ft 0 kts 155°
2026-05-07 07:49 41.29756 2.06829 18 ft 6 kts 155°
2026-05-07 07:49 41.29718 2.06865 16 ft 7 kts 126°
2026-05-07 07:50 41.29723 2.06928 16 ft 7 kts 63°
2026-05-07 07:50 41.29748 2.07014 15 ft 13 kts 64°
2026-05-07 07:50 41.29790 2.07135 15 ft 15 kts 74°
2026-05-07 07:50 41.29757 2.07256 15 ft 14 kts 86°
2026-05-07 07:51 41.29796 2.07375 17 ft 15 kts 68°
2026-05-07 07:51 41.29841 2.07511 15 ft 18 kts 66°
2026-05-07 07:51 41.29894 2.07669 15 ft 19 kts 65°
2026-05-07 07:51 41.29949 2.07830 16 ft 19 kts 65°
2026-05-07 07:52 41.30003 2.07986 18 ft 18 kts 65°
2026-05-07 07:52 41.30055 2.08137 18 ft 18 kts 65°
2026-05-07 07:52 41.30104 2.08283 18 ft 17 kts 65°
2026-05-07 07:52 41.30152 2.08423 19 ft 16 kts 65°
2026-05-07 07:53 41.30201 2.08566 18 ft 19 kts 65°
2026-05-07 07:53 41.30268 2.08763 18 ft 27 kts 65°
2026-05-07 07:53 41.30350 2.08997 18 ft 27 kts 65°
2026-05-07 07:53 41.30427 2.09221 19 ft 26 kts 66°
2026-05-07 07:54 41.30497 2.09433 18 ft 24 kts 65°
2026-05-07 07:54 41.30565 2.09626 18 ft 23 kts 65°
2026-05-07 07:54 41.30614 2.09777 18 ft 8 kts 78°
2026-05-07 07:54 41.30583 2.09836 17 ft 9 kts 155°
2026-05-07 07:55 41.30535 2.09865 16 ft 0 kts 158°
2026-05-07 07:55 41.30534 2.09865 16 ft 0 kts 158°
2026-05-07 07:55 41.30521 2.09872 17 ft 6 kts 158°
2026-05-07 07:56 41.30464 2.09903 17 ft 10 kts 158°
2026-05-07 07:56 41.30395 2.09860 16 ft 19 kts 242°
2026-05-07 07:56 41.30299 2.09572 16 ft 64 kts 245°
2026-05-07 07:56 41.30134 2.09088 17 ft 110 kts 245°
2026-05-07 07:57 41.29734 2.07901 30 ft 166 kts 248°
2026-05-07 07:57 41.29072 2.05931 833 ft 176 kts 246°
2026-05-07 07:57 41.28743 2.04953 1436 ft 175 kts 244°
2026-05-07 07:57 41.28208 2.03410 2116 ft 181 kts 244°
2026-05-07 07:58 41.27690 2.01916 3053 ft 176 kts 244°
2026-05-07 07:58 41.27164 2.00408 3660 ft 192 kts 245°
2026-05-07 07:58 41.26564 1.98681 3911 ft 219 kts 245°
2026-05-07 07:58 41.25893 1.96741 4162 ft 241 kts 245°
2026-05-07 07:59 41.25211 1.94586 4460 ft 262 kts 257°
2026-05-07 07:59 41.25325 1.92193 5316 ft 261 kts 286°
2026-05-07 07:59 41.25894 1.89857 6190 ft 265 kts 288°
2026-05-07 07:59 41.26485 1.87538 7043 ft 267 kts 288°
2026-05-07 08:00 41.27085 1.85180 7829 ft 271 kts 288°
2026-05-07 08:00 41.27683 1.82804 8656 ft 273 kts 287°
2026-05-07 08:00 41.28284 1.80377 9437 ft 278 kts 287°
2026-05-07 08:00 41.28886 1.77925 10228 ft 280 kts 287°
2026-05-07 08:01 41.29510 1.75359 10573 ft 301 kts 287°
2026-05-07 08:01 41.30171 1.72619 10765 ft 324 kts 287°
2026-05-07 08:01 41.30869 1.69710 11285 ft 334 kts 287°
2026-05-07 08:01 41.31586 1.66711 11965 ft 339 kts 287°
2026-05-07 08:02 41.32303 1.63707 12714 ft 343 kts 286°
2026-05-07 08:02 41.33021 1.60688 13459 ft 348 kts 286°
2026-05-07 08:02 41.33759 1.57571 14205 ft 353 kts 286°
2026-05-07 08:02 41.34502 1.54437 14976 ft 355 kts 286°
2026-05-07 08:03 41.35236 1.51324 15753 ft 357 kts 285°
2026-05-07 08:03 41.35988 1.48117 16493 ft 362 kts 285°
2026-05-07 08:03 41.36747 1.44898 17274 ft 365 kts 285°
2026-05-07 08:03 41.37499 1.41694 18040 ft 368 kts 285°
2026-05-07 08:04 41.38271 1.38415 18717 ft 372 kts 285°
2026-05-07 08:04 41.39049 1.35118 19401 ft 374 kts 285°
2026-05-07 08:04 41.39830 1.31808 20040 ft 377 kts 285°
2026-05-07 08:04 41.40618 1.28449 20686 ft 380 kts 285°
2026-05-07 08:05 41.41402 1.25092 21321 ft 383 kts 285°
2026-05-07 08:05 41.42195 1.21688 21957 ft 386 kts 284°
2026-05-07 08:05 41.43004 1.18215 22573 ft 389 kts 284°
2026-05-07 08:05 41.43798 1.14797 23167 ft 392 kts 284°
2026-05-07 08:06 41.44612 1.11296 23740 ft 395 kts 284°
2026-05-07 08:06 41.45426 1.07784 24222 ft 397 kts 284°
2026-05-07 08:06 41.46242 1.04260 24723 ft 399 kts 284°
2026-05-07 08:06 41.47063 1.00711 25209 ft 401 kts 284°
2026-05-07 08:07 41.47895 0.97108 25685 ft 404 kts 284°
2026-05-07 08:07 41.48714 0.93552 26140 ft 406 kts 284°
2026-05-07 08:07 41.49541 0.89958 26602 ft 408 kts 284°
2026-05-07 08:07 41.50383 0.86296 27173 ft 406 kts 283°
2026-05-07 08:08 41.51200 0.82737 27864 ft 402 kts 283°
2026-05-07 08:08 41.52015 0.79181 28534 ft 399 kts 283°
2026-05-07 08:08 41.52829 0.75622 29133 ft 398 kts 283°
2026-05-07 08:08 41.53626 0.72129 29687 ft 397 kts 283°
2026-05-07 08:09 41.54429 0.68613 30254 ft 395 kts 283°
2026-05-07 08:09 41.55380 0.65417 30686 ft 398 kts 291°
2026-05-07 08:09 41.56772 0.62191 31105 ft 404 kts 301°
2026-05-07 08:09 41.58487 0.59219 31538 ft 405 kts 303°
2026-05-07 08:10 41.60251 0.56303 31956 ft 405 kts 304°
2026-05-07 08:10 41.63825 0.50399 32013 ft 405 kts 303°
2026-05-07 08:11 41.67322 0.44527 32029 ft 404 kts 303°
2026-05-07 08:11 41.70814 0.38612 32029 ft 405 kts 303°
2026-05-07 08:12 41.74197 0.32601 32022 ft 402 kts 296°
2026-05-07 08:12 41.76308 0.25795 32023 ft 393 kts 282°
2026-05-07 08:13 41.77893 0.18779 32016 ft 394 kts 283°
2026-05-07 08:13 41.79542 0.11731 32016 ft 395 kts 283°
2026-05-07 08:14 41.81187 0.04719 32007 ft 395 kts 283°
2026-05-07 08:14 41.82824 -0.02284 32019 ft 395 kts 283°
2026-05-07 08:15 41.84470 -0.09355 32015 ft 395 kts 283°
2026-05-07 08:15 41.86104 -0.16399 32015 ft 396 kts 283°
2026-05-07 08:16 41.87733 -0.23439 32016 ft 396 kts 283°
2026-05-07 08:16 41.89363 -0.30505 32019 ft 396 kts 283°
2026-05-07 08:17 41.90989 -0.37576 32027 ft 396 kts 283°
2026-05-07 08:17 41.92629 -0.44727 32034 ft 409 kts 283°
2026-05-07 08:18 41.94333 -0.52180 32032 ft 424 kts 283°
2026-05-07 08:18 41.96081 -0.59841 32034 ft 437 kts 283°
2026-05-07 08:19 41.97885 -0.67759 32002 ft 440 kts 283°
2026-05-07 08:19 41.99659 -0.75578 32011 ft 440 kts 283°
2026-05-07 08:20 42.01441 -0.83465 32003 ft 440 kts 283°
2026-05-07 08:20 42.03215 -0.91368 32012 ft 438 kts 283°
2026-05-07 08:21 42.04966 -0.99210 32009 ft 437 kts 283°
2026-05-07 08:21 42.06705 -1.07023 32013 ft 436 kts 283°
2026-05-07 08:22 42.08446 -1.14871 32013 ft 435 kts 283°
2026-05-07 08:22 42.10171 -1.22673 32015 ft 435 kts 283°
2026-05-07 08:23 42.11891 -1.30471 32013 ft 435 kts 283°
2026-05-07 08:23 42.13616 -1.38318 32015 ft 435 kts 283°
2026-05-07 08:24 42.15327 -1.46129 32016 ft 436 kts 283°
2026-05-07 08:24 42.17035 -1.53952 32017 ft 437 kts 283°
2026-05-07 08:25 42.18750 -1.61839 32020 ft 437 kts 283°
2026-05-07 08:25 42.20451 -1.69694 32006 ft 438 kts 283°
2026-05-07 08:26 42.23013 -1.81573 32007 ft 439 kts 283°
2026-05-07 08:26 42.24432 -1.88182 32010 ft 439 kts 283°
2026-05-07 08:27 42.26127 -1.96102 32001 ft 439 kts 282°
2026-05-07 08:27 42.27818 -2.04031 31998 ft 439 kts 282°
2026-05-07 08:28 42.29501 -2.11963 31996 ft 439 kts 282°
2026-05-07 08:28 42.31184 -2.19925 31995 ft 439 kts 282°
2026-05-07 08:29 42.32856 -2.27862 31994 ft 440 kts 282°
2026-05-07 08:29 42.34525 -2.35818 31989 ft 440 kts 282°
2026-05-07 08:30 42.36198 -2.43822 31998 ft 440 kts 282°
2026-05-07 08:30 42.37857 -2.51788 31994 ft 440 kts 282°
2026-05-07 08:31 42.39507 -2.59746 31984 ft 440 kts 282°
2026-05-07 08:31 42.41159 -2.67739 31983 ft 441 kts 282°
2026-05-07 08:32 42.42804 -2.75728 31974 ft 441 kts 282°
2026-05-07 08:32 42.44356 -2.83751 31946 ft 438 kts 274°
2026-05-07 08:33 42.44460 -2.87813 31982 ft 432 kts 262°
2026-05-07 08:33 42.43976 -2.91809 31954 ft 428 kts 252°
2026-05-07 08:33 42.41671 -2.99194 31973 ft 425 kts 243°
2026-05-07 08:34 42.39120 -3.06451 31957 ft 426 kts 242°
2026-05-07 08:34 42.36594 -3.13718 31957 ft 426 kts 243°
2026-05-07 08:35 42.34101 -3.20964 31955 ft 427 kts 243°
2026-05-07 08:35 42.31601 -3.28247 31961 ft 427 kts 243°
2026-05-07 08:36 42.29105 -3.35503 31958 ft 427 kts 243°
2026-05-07 08:36 42.26586 -3.42803 31959 ft 427 kts 243°
2026-05-07 08:37 42.24076 -3.50057 31961 ft 426 kts 243°
2026-05-07 08:37 42.21565 -3.57292 31962 ft 426 kts 242°
2026-05-07 08:38 42.19040 -3.64551 31961 ft 426 kts 242°
2026-05-07 08:38 42.16523 -3.71769 31955 ft 425 kts 242°
2026-05-07 08:39 42.14013 -3.78949 31951 ft 425 kts 242°
2026-05-07 08:39 42.11477 -3.86182 31942 ft 426 kts 242°
2026-05-07 08:40 42.08939 -3.93404 31936 ft 426 kts 242°
2026-05-07 08:40 42.06407 -4.00593 31937 ft 426 kts 242°
2026-05-07 08:41 42.03866 -4.07789 31938 ft 426 kts 242°
2026-05-07 08:41 42.01376 -4.15020 31936 ft 427 kts 244°
2026-05-07 08:42 41.99059 -4.22389 31938 ft 427 kts 244°
2026-05-07 08:42 41.96757 -4.29771 31936 ft 427 kts 244°
2026-05-07 08:43 41.94436 -4.37114 31934 ft 427 kts 244°
2026-05-07 08:43 41.92104 -4.44426 31934 ft 428 kts 244°
2026-05-07 08:44 41.89741 -4.51803 31933 ft 428 kts 244°
2026-05-07 08:44 41.87385 -4.59136 31929 ft 428 kts 244°
2026-05-07 08:45 41.85032 -4.66444 31938 ft 428 kts 244°
2026-05-07 08:45 41.82658 -4.73794 31937 ft 428 kts 244°
2026-05-07 08:46 41.80294 -4.81098 31938 ft 429 kts 244°
2026-05-07 08:46 41.77912 -4.88433 31939 ft 429 kts 244°
2026-05-07 08:47 41.75528 -4.95757 31945 ft 429 kts 244°
2026-05-07 08:47 41.73140 -5.03074 31936 ft 430 kts 244°
2026-05-07 08:48 41.70735 -5.10423 31932 ft 430 kts 244°
2026-05-07 08:48 41.68329 -5.17755 31925 ft 431 kts 244°
2026-05-07 08:49 41.65906 -5.25120 31921 ft 432 kts 244°
2026-05-07 08:49 41.63491 -5.32440 31922 ft 433 kts 244°
2026-05-07 08:50 41.61046 -5.39832 31921 ft 434 kts 244°
2026-05-07 08:50 41.58611 -5.47176 31923 ft 435 kts 244°
2026-05-07 08:51 41.56148 -5.54587 31927 ft 435 kts 244°
2026-05-07 08:51 41.53725 -5.62022 31926 ft 437 kts 249°
2026-05-07 08:52 41.52477 -5.69967 31941 ft 441 kts 262°
2026-05-07 08:52 41.51947 -5.78127 31942 ft 446 kts 263°
2026-05-07 08:53 41.51393 -5.86449 31934 ft 450 kts 263°
2026-05-07 08:53 41.50796 -5.94775 31934 ft 450 kts 263°
2026-05-07 08:54 41.50185 -6.03042 31935 ft 449 kts 263°
2026-05-07 08:54 41.49564 -6.11350 31927 ft 450 kts 263°
2026-05-07 08:55 41.48942 -6.19626 31928 ft 449 kts 263°
2026-05-07 08:55 41.48330 -6.27939 31926 ft 449 kts 265°
2026-05-07 08:56 41.48445 -6.36306 31927 ft 449 kts 272°
2026-05-07 08:56 41.48786 -6.44605 31928 ft 449 kts 272°
2026-05-07 08:57 41.49091 -6.52737 31795 ft 424 kts 272°
2026-05-07 08:57 41.49220 -6.56607 31703 ft 410 kts 272°
2026-05-07 08:57 41.49340 -6.60363 31625 ft 398 kts 272°
2026-05-07 08:58 41.49451 -6.64037 31301 ft 392 kts 272°
2026-05-07 08:58 41.49560 -6.67672 30698 ft 395 kts 272°
2026-05-07 08:58 41.49667 -6.71307 30068 ft 398 kts 272°
2026-05-07 08:58 41.49776 -6.75020 29363 ft 400 kts 272°
2026-05-07 08:59 41.49883 -6.78700 29037 ft 393 kts 272°
2026-05-07 08:59 41.49989 -6.82352 28418 ft 393 kts 272°
2026-05-07 08:59 41.50093 -6.85993 27802 ft 393 kts 272°
2026-05-07 08:59 41.50196 -6.89645 27159 ft 394 kts 272°
2026-05-07 09:00 41.50264 -6.92094 26709 ft 395 kts 272°
2026-05-07 09:00 41.50398 -6.96973 25809 ft 398 kts 271°
2026-05-07 09:00 41.50498 -7.00677 25100 ft 401 kts 271°
2026-05-07 09:00 41.50566 -7.03204 24613 ft 403 kts 271°
2026-05-07 09:01 41.50665 -7.06918 23874 ft 407 kts 271°
2026-05-07 09:01 41.50764 -7.10699 23236 ft 406 kts 271°
2026-05-07 09:01 41.50863 -7.14463 22614 ft 403 kts 271°
2026-05-07 09:01 41.50958 -7.18122 22095 ft 398 kts 271°
2026-05-07 09:02 41.51054 -7.21864 21580 ft 393 kts 271°
2026-05-07 09:02 41.51144 -7.25448 21094 ft 389 kts 271°
2026-05-07 09:02 41.51234 -7.29074 20608 ft 385 kts 271°
2026-05-07 09:02 41.51321 -7.32633 20121 ft 382 kts 271°
2026-05-07 09:03 41.51404 -7.36112 19651 ft 378 kts 271°
2026-05-07 09:03 41.51487 -7.39607 19188 ft 375 kts 271°
2026-05-07 09:03 41.51569 -7.43087 18731 ft 372 kts 271°
2026-05-07 09:03 41.51650 -7.46557 18261 ft 370 kts 270°
2026-05-07 09:04 41.51725 -7.49943 17747 ft 367 kts 270°
2026-05-07 09:04 41.51803 -7.53342 17249 ft 365 kts 270°
2026-05-07 09:04 41.51880 -7.56748 16759 ft 362 kts 270°
2026-05-07 09:04 41.51954 -7.60075 16323 ft 359 kts 270°
2026-05-07 09:05 41.52027 -7.63409 15874 ft 356 kts 270°
2026-05-07 09:05 41.52098 -7.66692 15418 ft 353 kts 270°
2026-05-07 09:05 41.52201 -7.69923 14981 ft 351 kts 272°
2026-05-07 09:05 41.52361 -7.73205 14540 ft 349 kts 272°
2026-05-07 09:06 41.52535 -7.76410 14107 ft 346 kts 273°
2026-05-07 09:06 41.52708 -7.79585 13672 ft 344 kts 273°
2026-05-07 09:06 41.52876 -7.82753 13196 ft 344 kts 272°
2026-05-07 09:06 41.53041 -7.85959 12746 ft 345 kts 272°
2026-05-07 09:07 41.53203 -7.89145 12313 ft 346 kts 272°
2026-05-07 09:07 41.53364 -7.92367 11836 ft 349 kts 272°
2026-05-07 09:07 41.53524 -7.95612 11407 ft 349 kts 272°
2026-05-07 09:07 41.53682 -7.98857 11059 ft 348 kts 272°
2026-05-07 09:08 41.53838 -8.02075 11024 ft 343 kts 272°
2026-05-07 09:08 41.53988 -8.05175 11000 ft 330 kts 272°
2026-05-07 09:08 41.54132 -8.08169 10994 ft 315 kts 272°
2026-05-07 09:08 41.54268 -8.11024 10996 ft 302 kts 272°
2026-05-07 09:09 41.54400 -8.13773 10984 ft 290 kts 272°
2026-05-07 09:09 41.54524 -8.16374 10979 ft 279 kts 272°
2026-05-07 09:09 41.54644 -8.18940 10896 ft 271 kts 272°
2026-05-07 09:09 41.54760 -8.21455 10550 ft 274 kts 272°
2026-05-07 09:10 41.54876 -8.24003 10220 ft 276 kts 271°
2026-05-07 09:10 41.54995 -8.26555 9975 ft 276 kts 272°
2026-05-07 09:10 41.55115 -8.29144 9740 ft 275 kts 272°
2026-05-07 09:10 41.55231 -8.31668 9485 ft 273 kts 272°
2026-05-07 09:11 41.55345 -8.34190 9266 ft 272 kts 272°
2026-05-07 09:11 41.55460 -8.36732 9014 ft 272 kts 271°
2026-05-07 09:11 41.55467 -8.39230 8709 ft 271 kts 264°
2026-05-07 09:11 41.55285 -8.41737 8510 ft 269 kts 262°
2026-05-07 09:12 41.55081 -8.44218 8266 ft 268 kts 262°
2026-05-07 09:12 41.54884 -8.46670 8015 ft 267 kts 262°
2026-05-07 09:12 41.54698 -8.49167 7740 ft 267 kts 263°
2026-05-07 09:12 41.54579 -8.50785 7589 ft 266 kts 262°
2026-05-07 09:13 41.54368 -8.53629 7329 ft 265 kts 262°
2026-05-07 09:14 41.54192 -8.56078 7101 ft 265 kts 263°
2026-05-07 09:14 41.54021 -8.58529 6866 ft 264 kts 262°
2026-05-07 09:14 41.53848 -8.60957 6615 ft 263 kts 262°
2026-05-07 09:14 41.53628 -8.63386 6347 ft 262 kts 258°
2026-05-07 09:15 41.53280 -8.65776 6114 ft 261 kts 256°
2026-05-07 09:15 41.52912 -8.68134 5852 ft 260 kts 256°
2026-05-07 09:15 41.52548 -8.70510 5649 ft 260 kts 256°
2026-05-07 09:15 41.52050 -8.72773 5530 ft 250 kts 237°
2026-05-07 09:16 41.50860 -8.74326 5449 ft 238 kts 204°
2026-05-07 09:16 41.49290 -8.74678 5379 ft 229 kts 172°
2026-05-07 09:16 41.47749 -8.74214 5303 ft 221 kts 167°
2026-05-07 09:16 41.46278 -8.73782 5222 ft 214 kts 169°
2026-05-07 09:17 41.44823 -8.73396 5038 ft 212 kts 169°
2026-05-07 09:17 41.43381 -8.73015 4826 ft 210 kts 169°
2026-05-07 09:17 41.41949 -8.72651 4526 ft 212 kts 168°
2026-05-07 09:17 41.40532 -8.72263 4420 ft 200 kts 168°
2026-05-07 09:18 41.39211 -8.71909 4217 ft 188 kts 168°
2026-05-07 09:18 41.37925 -8.71573 3711 ft 192 kts 169°
2026-05-07 09:18 41.36604 -8.71228 3213 ft 193 kts 169°
2026-05-07 09:18 41.35279 -8.70880 2651 ft 195 kts 169°
2026-05-07 09:19 41.33990 -8.70543 2393 ft 181 kts 169°
2026-05-07 09:19 41.32742 -8.70223 1826 ft 186 kts 170°
2026-05-07 09:19 41.31498 -8.69913 1472 ft 173 kts 168°
2026-05-07 09:19 41.30351 -8.69581 1029 ft 164 kts 170°
2026-05-07 09:20 41.29270 -8.69315 777 ft 150 kts 170°
2026-05-07 09:20 41.28293 -8.69038 563 ft 140 kts 170°
2026-05-07 09:20 41.27351 -8.68799 379 ft 134 kts 171°
2026-05-07 09:20 41.26395 -8.68551 260 ft 146 kts 169°
2026-05-07 09:21 41.25447 -8.68297 172 ft 132 kts 170°
2026-05-07 09:21 41.24630 -8.68083 202 ft 100 kts 169°
2026-05-07 09:21 41.24065 -8.67931 215 ft 66 kts 169°
2026-05-07 09:21 41.23724 -8.67844 224 ft 39 kts 168°
2026-05-07 09:22 41.23604 -8.67787 229 ft 13 kts 129°
2026-05-07 09:22 41.23599 -8.67675 230 ft 12 kts 81°
2026-05-07 09:22 41.23616 -8.67563 235 ft 12 kts 78°
2026-05-07 09:22 41.23638 -8.67456 238 ft 12 kts 58°
2026-05-07 09:23 41.23712 -8.67444 237 ft 12 kts 349°
2026-05-07 09:23 41.23789 -8.67467 238 ft 11 kts 349°
2026-05-07 09:23 41.23866 -8.67485 236 ft 11 kts 348°
2026-05-07 09:23 41.23940 -8.67506 238 ft 11 kts 350°
2026-05-07 09:24 41.24013 -8.67523 236 ft 11 kts 350°
2026-05-07 09:24 41.24075 -8.67517 239 ft 7 kts 55°
2026-05-07 09:24 41.24087 -8.67451 236 ft 7 kts 79°
2026-05-07 09:24 41.24094 -8.67399 239 ft 5 kts 79°
2026-05-07 09:25 41.24100 -8.67356 236 ft 4 kts 79°
2026-05-07 09:25 41.24101 -8.67345 236 ft 0 kts 79°